Temp
-16 -16 -16 -17 -17 -16 -16 -16 -16 -16 -16 -16 -16 -16 -16 -15 -15 -15 -16 -16 -15 -15 -15 -15 -15 -15 -15 -15 -16 -16 -16 -16 -16 -16 -16 -16 -15 -15 -15 -15 -15 -15
-17 -17 -17 -17 -17 -17 -17 -16 -16 -16 -16 -16 -16 -16 -16 -16 -16 -16 -16 -16 -16 -16 -16 -16 -16 -16 -16 -16 -16 -16 -16 -16 -16 -16 -16 -16 -16 -16 -16 -16 -15 -15
-17 -17 -17 -17 -17 -17 -17 -17 -16 -16 -16 -16 -16 -16 -16 -16 -16 -16 -16 -16 -16 -16 -16 -16 -16 -16 -16 -16 -16 -16 -16 -16 -16 -16 -16 -16 -16 -16 -16 -16 -16 -16
-17 -18 -17 -17 -17 -17 -17 -17 -17 -17 -16 -16 -16 -16 -16 -16 -16 -16 -16 -16 -16 -16 -16 -16 -16 -16 -16 -16 -16 -16 -16 -16 -16 -17 -17 -17 -17 -16 -16 -16 -16 -16
-18 -18 -18 -18 -17 -17 -17 -17 -17 -17 -17 -17 -17 -17 -16 -16 -16 -16 -16 -16 -16 -16 -16 -16 -16 -17 -17 -17 -17 -17 -17 -17 -17 -17 -17 -17 -17 -17 -17 -16 -16 -16
-18 -18 -18 -18 -18 -17 -17 -17 -17 -17 -17 -17 -17 -17 -17 -17 -17 -17 -17 -17 -17 -17 -17 -17 -17 -17 -17 -17 -17 -17 -17 -17 -17 -17 -17 -17 -17 -17 -17 -17 -17 -17
-18 -18 -18 -18 -18 -18 -18 -17 -17 -17 -17 -17 -17 -18 -18 -18 -18 -18 -18 -17 -17 -17 -17 -17 -17 -17 -17 -17 -17 -17 -17 -17 -17 -17 -17 -17 -17 -17 -17 -17 -17 -17
-18 -18 -18 -18 -18 -18 -18 -18 -17 -17 -17 -17 -17 -17 -17 -18 -18 -18 -18 -18 -18 -18 -18 -18 -18 -18 -17 -17 -17 -17 -17 -17 -17 -17 -17 -17 -17 -17 -17 -17 -17 -17
-18 -18 -18 -18 -18 -18 -18 -18 -18 -17 -17 -17 -17 -17 -17 -17 -18 -18 -18 -18 -18 -18 -18 -18 -18 -18 -18 -18 -18 -18 -18 -18 -18 -18 -18 -18 -17 -17 -17 -17 -17 -17
-18 -18 -18 -18 -18 -18 -18 -18 -18 -17 -17 -17 -17 -18 -17 -18 -18 -18 -18 -18 -18 -18 -18 -18 -19 -19 -19 -18 -18 -18 -18 -18 -18 -18 -18 -18 -18 -18 -18 -18 -17 -17
-18 -18 -18 -18 -18 -18 -18 -18 -18 -18 -17 -18 -18 -18 -18 -18 -18 -18 -18 -18 -18 -18 -18 -18 -18 -19 -19 -19 -19 -19 -18 -18 -18 -18 -18 -18 -18 -18 -18 -18 -18 -18
-18 -18 -18 -18 -18 -18 -18 -18 -18 -18 -18 -18 -18 -18 -18 -18 -18 -18 -18 -18 -18 -18 -19 -18 -18 -19 -19 -19 -19 -19 -19 -19 -18 -18 -18 -18 -18 -18 -18 -18 -18 -18
-18 -18 -18 -18 -18 -18 -18 -18 -18 -18 -18 -18 -18 -18 -18 -18 -18 -18 -18 -18 -18 -18 -18 -18 -19 -19 -19 -19 -19 -19 -19 -19 -19 -18 -18 -18 -18 -18 -18 -18 -18 -18
-19 -19 -19 -19 -19 -19 -19 -19 -19 -19 -18 -18 -18 -18 -18 -18 -18 -18 -18 -18 -19 -18 -18 -18 -18 -18 -19 -19 -19 -19 -19 -19 -19 -19 -18 -18 -18 -18 -18 -18 -18 -18
-19 -19 -19 -19 -19 -19 -19 -19 -19 -19 -19 -18 -18 -18 -18 -18 -18 -18 -18 -19 -19 -19 -18 -18 -18 -18 -19 -19 -19 -19 -19 -19 -19 -19 -19 -18 -18 -18 -18 -18 -19 -18
-19 -19 -19 -19 -19 -19 -19 -19 -19 -19 -19 -18 -18 -19 -19 -18 -18 -18 -19 -19 -19 -19 -19 -18 -18 -18 -19 -19 -19 -19 -19 -19 -19 -19 -19 -19 -18 -19 -19 -19 -19 -18
-19 -19 -19 -19 -19 -19 -19 -19 -19 -19 -19 -19 -19 -19 -19 -19 -19 -19 -19 -19 -19 -19 -19 -19 -19 -19 -19 -19 -19 -19 -19 -19 -19 -19 -19 -19 -19 -19 -19 -19 -19 -19
-19 -19 -19 -19 -19 -19 -19 -19 -19 -19 -19 -19 -19 -19 -19 -19 -19 -19 -19 -19 -19 -19 -19 -19 -19 -19 -19 -19 -19 -19 -19 -19 -19 -19 -19 -19 -19 -19 -19 -19 -19 -19
-19 -19 -20 -20 -19 -19 -19 -19 -19 -20 -20 -20 -19 -19 -19 -19 -19 -20 -19 -19 -19 -19 -19 -19 -19 -19 -19 -19 -19 -19 -19 -19 -19 -19 -19 -19 -19 -19 -19 -19 -19 -19
-20 -20 -20 -20 -20 -20 -20 -20 -20 -20 -20 -20 -20 -20 -20 -20 -20 -20 -20 -20 -19 -19 -19 -19 -20 -20 -20 -20 -19 -19 -19 -19 -19 -19 -19 -19 -19 -19 -19 -19 -19 -19
-20 -20 -20 -20 -20 -20 -20 -20 -20 -20 -20 -20 -20 -20 -20 -20 -20 -20 -20 -20 -19 -19 -19 -20 -20 -20 -20 -20 -20 -20 -20 -20 -20 -19 -19 -19 -19 -19 -19 -19 -19 -19
-20 -20 -20 -20 -20 -20 -20 -20 -20 -20 -20 -20 -20 -20 -20 -20 -20 -20 -20 -20 -20 -19 -20 -20 -21 -21 -20 -20 -20 -20 -20 -20 -20 -19 -19 -19 -19 -19 -19 -19 -19 -19
-20 -20 -20 -20 -20 -20 -20 -20 -20 -20 -20 -20 -20 -21 -21 -20 -20 -20 -20 -20 -20 -20 -20 -20 -21 -21 -21 -20 -20 -20 -20 -20 -20 -20 -20 -20 -19 -19 -19 -19 -19 -19
-20 -20 -20 -20 -20 -20 -20 -20 -20 -20 -20 -20 -21 -21 -21 -21 -20 -20 -20 -20 -20 -20 -20 -20 -20 -20 -20 -20 -20 -20 -20 -20 -20 -20 -20 -20 -20 -20 -20 -20 -20 -20
-21 -21 -21 -21 -21 -21 -21 -21 -21 -21 -21 -21 -21 -21 -21 -21 -21 -21 -20 -20 -20 -20 -20 -20 -20 -20 -20 -21 -21 -20 -20 -20 -20 -20 -20 -20 -20 -20 -20 -20 -20 -20
-21 -21 -21 -21 -21 -21 -21 -21 -21 -21 -21 -21 -21 -21 -21 -21 -21 -21 -21 -20 -20 -20 -20 -21 -21 -21 -21 -21 -21 -21 -21 -21 -21 -21 -21 -21 -21 -21 -21 -21 -21 -20
Height
5729 5730 5731 5732 5733 5732 5733 5733 5733 5733 5734 5734 5735 5735 5736 5736 5737 5737 5737 5738 5738 5738 5738 5738 5738 5739 5739 5739 5739 5740 5740 5741 5741 5741 5742 5742 5742 5742 5742 5743 5743 5743
5727 5728 5729 5730 5731 5731 5731 5731 5731 5731 5731 5732 5733 5733 5734 5734 5735 5735 5736 5736 5736 5736 5737 5737 5737 5737 5737 5737 5738 5738 5738 5738 5739 5739 5740 5740 5740 5741 5741 5741 5741 5741
5725 5725 5726 5728 5728 5729 5729 5729 5729 5729 5730 5730 5731 5731 5732 5732 5733 5733 5734 5734 5734 5734 5735 5735 5735 5735 5736 5736 5736 5736 5737 5737 5737 5737 5738 5738 5738 5739 5739 5739 5739 5740
5723 5723 5724 5725 5726 5727 5727 5728 5728 5728 5728 5729 5729 5730 5730 5731 5731 5731 5732 5732 5732 5732 5732 5733 5733 5733 5734 5734 5734 5735 5735 5735 5736 5736 5736 5736 5737 5737 5737 5737 5738 5738
5721 5720 5721 5723 5724 5725 5726 5726 5726 5726 5727 5728 5728 5729 5729 5729 5729 5730 5730 5730 5730 5730 5730 5730 5730 5731 5731 5732 5732 5733 5733 5734 5734 5734 5735 5735 5735 5735 5735 5736 5736 5736
5718 5718 5719 5721 5722 5723 5724 5725 5725 5725 5726 5726 5726 5727 5727 5727 5727 5728 5728 5728 5728 5728 5728 5728 5728 5728 5729 5730 5730 5731 5731 5731 5732 5732 5733 5733 5733 5734 5734 5734 5734 5734
5716 5716 5717 5719 5720 5721 5722 5723 5723 5723 5723 5723 5724 5724 5725 5725 5725 5725 5726 5726 5726 5727 5726 5726 5727 5727 5727 5727 5728 5728 5728 5729 5729 5730 5730 5731 5731 5732 5732 5732 5732 5732
5713 5714 5715 5716 5717 5717 5718 5720 5721 5721 5720 5721 5721 5722 5722 5723 5723 5723 5723 5723 5723 5724 5724 5724 5725 5725 5725 5725 5725 5725 5725 5726 5726 5727 5728 5728 5729 5729 5730 5730 5730 5730
5711 5711 5712 5713 5714 5715 5715 5717 5717 5717 5717 5717 5718 5719 5720 5720 5720 5720 5720 5720 5720 5720 5721 5721 5721 5722 5722 5722 5723 5723 5723 5723 5724 5724 5725 5726 5726 5727 5727 5728 5728 5728
5708 5708 5709 5709 5711 5712 5713 5713 5713 5713 5713 5713 5714 5715 5716 5717 5717 5718 5718 5718 5718 5718 5718 5717 5717 5718 5719 5719 5720 5720 5720 5721 5721 5722 5722 5723 5724 5724 5725 5725 5725 5725
5705 5705 5706 5706 5707 5708 5709 5709 5709 5710 5710 5710 5710 5710 5711 5712 5713 5714 5715 5716 5716 5716 5715 5715 5715 5715 5716 5716 5717 5717 5717 5718 5718 5719 5719 5720 5720 5721 5721 5722 5722 5723
5701 5702 5702 5703 5704 5705 5705 5705 5705 5706 5706 5707 5707 5707 5708 5709 5709 5710 5711 5712 5713 5713 5713 5712 5712 5712 5713 5713 5714 5714 5714 5714 5715 5716 5716 5717 5717 5717 5718 5718 5718 5719
5697 5698 5698 5699 5700 5701 5701 5701 5701 5701 5701 5703 5704 5704 5705 5705 5705 5706 5706 5707 5707 5708 5709 5709 5709 5709 5710 5710 5710 5710 5711 5711 5711 5712 5712 5713 5714 5714 5714 5714 5714 5714
5692 5693 5694 5695 5695 5696 5697 5697 5696 5696 5697 5697 5699 5700 5701 5701 5702 5701 5700 5701 5702 5703 5704 5705 5705 5705 5706 5707 5707 5706 5706 5707 5707 5708 5708 5709 5709 5710 5710 5710 5710 5710
5688 5688 5689 5690 5691 5691 5692 5692 5692 5692 5692 5693 5694 5695 5695 5696 5696 5696 5696 5696 5697 5698 5699 5699 5700 5701 5702 5703 5704 5703 5703 5704 5704 5704 5704 5705 5705 5706 5706 5706 5706 5706
5683 5684 5685 5685 5686 5686 5687 5687 5687 5687 5687 5688 5689 5689 5689 5690 5690 5691 5691 5692 5692 5692 5693 5694 5695 5696 5697 5698 5699 5699 5699 5699 5699 5700 5700 5700 5700 5701 5702 5701 5701 5701
5678 5678 5679 5680 5680 5681 5681 5681 5681 5681 5682 5683 5683 5683 5684 5684 5684 5685 5686 5687 5687 5687 5688 5689 5690 5690 5691 5692 5694 5694 5694 5694 5695 5695 5696 5696 5695 5696 5696 5696 5696 5696
5672 5672 5673 5674 5674 5675 5675 5675 5675 5676 5676 5676 5677 5678 5678 5678 5678 5678 5679 5680 5682 5683 5684 5686 5686 5685 5686 5687 5688 5688 5688 5688 5689 5690 5690 5690 5690 5690 5690 5691 5690 5690
5665 5666 5667 5668 5668 5669 5670 5670 5670 5670 5670 5670 5671 5671 5672 5672 5672 5672 5672 5673 5674 5677 5679 5681 5681 5680 5681 5681 5682 5682 5682 5682 5683 5684 5684 5685 5685 5685 5684 5684 5684 5685
5659 5660 5660 5661 5662 5663 5664 5664 5664 5664 5664 5664 5664 5664 5664 5665 5666 5666 5666 5666 5667 5670 5673 5673 5673 5674 5675 5675 5675 5675 5676 5676 5676 5677 5678 5679 5678 5678 5678 5678 5678 5678
5652 5653 5654 5655 5656 5656 5657 5658 5658 5658 5658 5658 5658 5657 5657 5657 5658 5659 5660 5660 5661 5664 5666 5665 5665 5667 5668 5668 5668 5669 5669 5669 5669 5669 5671 5671 5671 5671 5671 5671 5671 5671
5646 5647 5647 5648 5649 5650 5650 5651 5651 5652 5651 5651 5651 5651 5650 5650 5651 5652 5653 5654 5657 5659 5659 5658 5658 5659 5660 5661 5662 5663 5663 5662 5662 5663 5663 5664 5663 5663 5664 5665 5664 5664
5640 5640 5640 5641 5642 5642 5643 5644 5644 5644 5644 5644 5644 5643 5643 5644 5645 5645 5646 5648 5652 5655 5653 5652 5652 5652 5652 5653 5654 5655 5656 5655 5656 5656 5656 5657 5657 5657 5657 5657 5657 5657
5633 5633 5633 5634 5635 5635 5636 5636 5636 5636 5636 5636 5636 5636 5636 5637 5638 5638 5639 5642 5647 5648 5647 5646 5646 5645 5646 5646 5646 5647 5648 5648 5648 5648 5648 5649 5649 5649 5649 5649 5649 5648
5625 5626 5626 5626 5627 5627 5628 5628 5628 5628 5628 5628 5629 5629 5629 5630 5631 5631 5633 5637 5640 5640 5639 5639 5639 5638 5639 5639 5639 5640 5641 5640 5640 5640 5640 5641 5641 5641 5641 5641 5640 5640
5617 5618 5619 5620 5620 5620 5620 5620 5620 5620 5620 5620 5621 5621 5621 5622 5624 5625 5627 5631 5632 5633 5633 5632 5631 5631 5632 5632 5632 5633 5633 5633 5632 5633 5633 5633 5633 5634 5634 5633 5632 5632
Wind_Speed
16 14 13 13 14 15 16 17 18 18 19 19 20 20 20 19 18 18 17 17 17 18 18 18 17 17 17 17 17 16 16 16 15 14 14 14 14 15 15 15 16 17
14 13 13 14 15 15 16 16 17 18 19 19 20 20 20 20 19 19 18 18 17 17 17 17 17 16 16 16 16 16 16 16 15 15 14 13 13 14 15 15 16 16
14 13 14 15 16 16 17 17 18 19 20 20 20 20 20 20 19 19 19 18 18 18 18 18 17 17 16 16 16 16 15 15 15 14 14 13 13 13 14 15 16 16
15 16 16 16 17 18 18 19 20 20 21 20 20 20 19 19 19 19 19 18 18 18 19 19 19 18 18 17 16 16 16 15 15 14 13 13 12 13 13 14 15 16
18 18 18 18 19 19 19 20 20 20 19 19 19 19 19 19 19 19 19 19 20 20 20 20 20 19 19 18 18 17 17 17 17 16 15 15 14 14 13 14 15 15
22 22 21 21 21 20 20 21 21 20 20 19 19 19 19 20 19 18 18 18 18 19 19 19 20 19 19 19 18 18 18 18 18 18 18 17 17 17 16 16 16 16
26 25 24 23 22 21 21 21 21 22 23 22 21 20 20 20 19 19 19 19 18 19 19 19 19 19 19 19 19 19 19 18 18 18 18 18 17 17 17 17 18 18
28 27 26 25 23 23 23 22 22 24 25 25 24 23 22 21 20 20 21 21 21 21 22 22 21 21 21 21 21 20 20 20 20 19 19 19 18 18 18 18 18 18
31 30 30 28 26 26 25 23 23 25 26 26 26 25 24 23 22 22 23 23 23 23 23 23 24 24 24 23 23 23 23 22 21 21 21 21 20 20 20 20 20 20
34 34 33 31 29 28 26 25 26 26 27 28 28 27 27 26 25 24 23 24 25 24 24 25 26 26 25 25 24 24 24 24 23 23 22 22 22 21 21 21 22 22
36 37 36 34 32 29 27 28 29 30 30 30 30 31 30 30 29 27 25 27 28 28 27 26 27 27 27 26 25 25 25 24 24 24 24 24 24 24 23 23 24 24
39 39 39 38 35 31 29 30 31 32 34 33 33 34 32 30 30 29 28 29 28 28 28 27 27 27 28 28 28 27 26 26 26 26 26 26 27 27 27 28 28 28
42 42 44 43 39 34 33 35 35 35 37 38 36 36 34 34 34 34 33 32 30 29 29 28 27 27 27 28 30 30 29 29 29 29 29 29 30 30 31 31 32 32
41 41 41 41 39 37 37 39 39 37 37 37 37 35 33 34 35 34 34 34 33 33 33 33 33 32 31 29 29 32 32 31 31 32 32 33 32 32 32 32 33 33
43 42 41 41 41 40 40 41 42 41 39 38 38 38 38 38 38 36 36 37 38 38 38 38 38 36 35 32 30 31 32 32 33 34 34 35 34 33 33 34 34 35
47 46 44 43 43 43 44 45 45 46 45 43 42 43 44 45 45 43 41 42 44 44 43 42 39 35 34 35 33 33 33 32 33 34 35 37 38 37 35 35 37 38
50 49 47 47 47 47 48 50 50 50 50 49 48 48 48 47 47 45 43 40 40 41 41 41 41 40 39 38 38 38 38 37 37 37 38 41 42 41 39 37 38 39
52 51 50 50 50 50 50 52 52 52 52 52 51 52 52 52 52 51 50 47 45 44 42 41 43 45 44 42 41 42 42 42 41 41 42 43 44 44 43 41 40 42
53 52 51 50 50 51 51 52 53 54 54 54 54 53 54 54 54 54 55 56 54 53 51 50 49 48 47 46 45 44 44 44 43 43 43 44 44 45 45 44 44 45
53 54 53 51 50 51 51 51 53 54 55 57 57 56 56 56 55 55 56 58 59 59 56 53 51 49 48 47 47 47 46 46 46 46 46 46 46 46 47 48 49 50
51 53 55 55 54 53 52 52 52 52 53 54 54 54 55 56 55 55 55 56 59 59 56 52 49 48 48 48 49 50 50 51 52 52 52 51 51 51 52 53 54 55
50 51 54 56 57 58 58 57 57 57 57 57 56 56 56 56 56 56 55 55 55 56 55 52 50 49 49 50 51 51 52 54 55 55 55 55 55 55 56 56 57 57
51 51 52 54 56 57 59 60 60 61 61 62 61 61 61 61 60 60 59 58 56 55 55 54 52 51 52 52 53 52 53 54 54 54 54 55 56 56 57 57 56 56
52 52 53 54 54 55 56 57 58 59 60 60 60 60 60 60 61 61 62 61 59 58 57 56 55 54 54 54 54 53 52 52 52 52 52 53 54 54 54 53 53 52
53 53 54 54 55 55 56 56 57 57 58 58 58 58 58 58 58 59 60 60 58 57 57 56 56 55 54 53 53 52 52 51 51 51 51 51 51 50 49 49 49 50
53 53 54 55 55 56 57 57 57 57 58 58 58 58 58 58 58 57 57 55 55 54 54 54 55 54 54 53 52 52 51 50 50 50 49 49 49 48 48 49 49 49
Wind_Direction
271 273 278 281 281 279 277 275 274 272 271 270 269 270 270 270 270 272 273 274 275 276 278 279 281 283 286 289 293 294 294 293 292 290 287 283 281 281 281 282 282 282
271 275 280 282 282 280 278 277 277 276 275 273 271 270 270 270 270 270 271 272 273 274 275 277 279 281 284 287 291 294 296 296 295 294 292 289 285 283 283 283 284 283
271 275 278 279 278 279 278 279 279 279 278 276 274 273 272 272 272 271 272 272 273 274 274 275 276 277 279 281 283 287 289 291 292 293 293 292 288 285 284 285 285 285
270 272 275 275 274 276 278 282 283 280 278 277 276 276 275 275 274 274 274 274 274 274 274 274 273 273 274 275 276 278 280 281 282 283 284 285 284 283 282 283 284 284
269 268 269 270 271 274 279 283 283 278 275 277 279 281 280 279 278 277 276 275 274 273 273 272 272 272 272 273 274 275 276 278 278 278 277 277 277 276 276 276 278 281
265 264 266 269 271 275 277 277 276 275 274 275 279 281 283 284 283 281 281 278 276 274 274 273 272 272 273 274 275 275 276 276 277 277 276 276 277 277 276 276 275 275
260 264 267 269 269 270 270 269 269 270 272 272 272 273 276 280 282 284 285 284 282 280 277 275 274 274 273 273 273 273 273 272 272 272 273 273 274 276 278 279 279 279
257 262 264 263 262 264 267 267 264 267 269 269 270 271 270 270 270 274 277 278 279 280 280 279 278 276 273 271 269 268 267 267 269 271 272 273 274 274 275 276 278 280
256 260 261 260 262 264 268 266 264 265 266 264 266 268 267 263 262 268 270 269 269 271 273 277 278 277 274 271 269 267 267 268 271 274 276 278 278 279 279 279 279 279
257 259 259 260 264 265 267 268 265 264 265 265 265 264 263 261 262 266 268 269 271 270 267 268 270 271 272 271 270 269 269 270 272 274 278 280 281 282 283 284 284 284
258 259 257 259 262 261 263 268 266 261 261 262 263 264 263 261 260 260 261 266 271 270 267 267 267 266 268 269 270 269 268 269 270 272 275 277 280 281 282 283 285 286
260 260 257 256 256 255 258 266 267 263 261 260 261 263 263 262 260 260 260 263 265 266 266 266 267 267 266 265 265 264 264 264 267 269 271 273 276 278 281 285 287 288
258 260 259 256 253 254 260 267 269 268 267 266 264 263 261 260 261 263 265 263 261 264 266 263 262 262 265 266 264 261 261 263 265 267 269 271 273 275 279 284 288 289
259 262 262 258 256 258 264 266 268 271 271 269 266 264 263 261 261 264 265 261 260 265 268 264 262 261 263 266 264 261 261 263 266 268 270 272 273 275 278 283 285 286
262 264 266 264 262 263 265 264 265 268 269 267 266 266 265 264 264 265 265 264 265 268 269 267 264 263 263 262 263 265 266 266 268 270 271 274 277 279 280 282 283 283
263 264 265 264 263 264 264 263 263 265 267 267 266 266 265 264 264 265 266 268 268 267 267 265 261 259 260 260 262 268 271 270 270 271 273 276 279 281 281 282 282 282
264 265 264 263 263 263 264 264 265 266 268 267 267 267 266 265 264 263 263 265 265 262 263 263 261 261 264 265 265 268 270 269 269 270 274 277 279 279 280 281 283 283
262 262 262 262 262 262 262 264 266 267 267 266 266 266 266 267 267 266 266 265 264 262 263 266 267 269 271 271 270 270 271 271 271 272 274 276 277 277 278 280 282 283
258 258 259 260 260 260 261 263 265 266 266 265 265 265 265 266 267 269 270 271 270 269 269 270 271 271 272 272 272 272 272 273 274 274 274 275 276 277 278 280 282 283
256 255 255 257 259 259 260 261 264 265 266 265 266 266 266 266 266 267 269 271 271 271 272 271 270 269 270 271 272 274 275 276 277 277 277 277 278 278 280 282 283 284
256 254 253 254 255 256 257 258 260 262 264 265 265 266 266 266 266 266 267 268 270 271 273 273 272 271 271 272 273 275 277 278 279 280 280 281 281 281 282 283 284 285
260 258 256 255 255 255 256 257 258 259 261 263 264 264 265 265 264 264 264 265 267 269 272 275 276 276 275 275 274 275 276 277 278 279 280 281 281 281 281 282 282 283
260 259 259 258 258 258 258 259 260 261 262 263 264 265 266 267 267 267 266 265 265 267 271 274 276 277 277 277 277 276 276 276 277 278 278 279 279 279 280 280 280 280
259 259 260 260 260 260 260 261 261 262 263 264 265 266 267 268 268 269 269 268 268 269 271 273 274 275 275 276 277 277 277 277 277 277 277 277 278 278 278 278 278 278
259 258 259 260 261 262 263 263 264 264 265 266 266 267 268 268 268 268 269 270 270 270 271 272 273 273 274 275 275 276 276 277 277 277 277 278 278 278 278 277 277 277
260 259 259 260 261 263 264 265 267 267 268 268 268 268 268 268 268 268 269 270 270 269 270 270 271 272 273 274 275 275 276 277 277 278 278 279 279 278 278 277 276 276